P/2006 XG16 (Spacewatch)

Epoch 2007 Mar. 1.0 TT = JDT 2454160.5  

T 2007 Feb. 9.94485 TT                                  Nakano

q   2.1022073            (2000.0)            P               Q

n   0.14247759     Peri.   41.30526     -0.48825421     -0.85890152

a   3.6305437      Node    78.45384     +0.75354044     -0.50426940

e   0.4209663      Incl.    9.07784     +0.44020975     -0.08944577

P   6.92 (+/- 0.01 day)

From 78 observations 2006 Nov. 15-2007 Apr. 2, mean residual 0".45.

Residuals in seconds of arc 

2006/                     070107 644  0.0   0.3-    070209 215  0.3-  1.3-  

061115 G96  0.6+  0.2-    070107 644  0.6+  0.1+    070209 215  0.1+  1.0-  

061115 G96  0.1-  0.1-    070107 644  0.3+  0.0     070209 215  0.5+  0.8-  

061115 G96  0.3-  0.1+    070109 704  0.3+  1.2+    070209 213  0.0   0.5-  

061115 G96  0.1-  0.1-    070109 704  0.0   0.7-    070209 213  0.1-  0.4+  

061210 691  0.1-  0.2+    070109 704  0.7+  0.7-    070209 213  0.0   0.3+  

061210 691  0.2-  0.2+    070109 704  0.2-  0.8+    070211 372  0.3+  0.1+  

061210 691  0.1-  0.1-    070127 693  0.1+  0.2-    070212 372 (0.4-  2.3+) 

061212 691  0.4-  0.2-    070127 693  0.0   0.2-    070212 372  0.2-  1.4+  

061212 691  0.9-  0.4-    070127 693  0.8-  0.3+    070212 349  0.2-  0.4+  

061212 691  0.1-  0.2-    070128 693  0.0   0.0     070212 349  0.1+  0.6+  

061215 704  0.2+  0.0     070128 693  0.0   0.0     070309 644  0.2-  0.3+  

061215 704  0.0   0.2-    070128 693  0.1-  0.1+    070309 644  0.2-  0.3+  

061215 704  0.4+  0.1+    070201 204  0.5+  0.4-    070309 644  0.4-  0.3+  

061215 704  0.2-  0.0     070201 204  0.2+  0.2+    070310 704  0.2+  0.5+  

061218 704  0.3+  0.1+    070204 349  0.9+  0.6-    070310 704  0.0   0.5-  

061218 704  0.1-  0.4-    070204 349  0.9+  0.4-    070310 704  0.9-  1.0+  

061218 704  0.3+  0.5+    070205 644  0.1+  0.1+    070310 704  0.1+  1.7+  

061218 704  0.5-  0.1+    070205 644  0.2-  0.1+    070312 213  0.1+  0.1-  

061218 704  0.8+  0.6+    070205 644  0.2-  0.1-    070312 213  0.1+  0.1-  

061226 691  0.1-  0.3-    070205 104  0.0   0.2-    070312 213  0.1-  0.1-  

061226 691  0.1-  0.2-    070205 104  0.1+  0.0     070316 703  0.0   0.8-  

061226 691  0.2-  0.3-    070205 104  0.1-  0.3-    070316 703  0.2+  0.8-  

2007/                     070208 673  0.4-  0.4+    070316 703  0.5+  1.0-  

070107 644  0.3-  0.1+    070208 673  0.2-  0.5+    070316 703  0.3+  0.5-  

070107 644  0.3-  0.1-    070208 673  0.3-  0.3+    070402 118  1.0-  0.8-  

070107 644  0.1-  0.6+    070208 673  0.4-  0.3+    070402 118  0.8+  0.5+  



NAKANO

         **** Don't distribute anyone except personal use only ****

                (C) Copyright 2007 OAA/ComputingSection

write mail from CFAD0::NAKANO on 2007-05-04 04:01:44(JST).

    P/2006 XG16 (Spacewatch)

Epoch 2007 Mar. 1.0 TT = JDT 2454160.5  

T 2007 Feb. 9.94528 TT                                  Nakano

q   2.1022164            (2000.0)            P               Q

n   0.14247543     Peri.   41.30518     -0.48825558     -0.85890048

a   3.6305805      Node    78.45402     +0.75353935     -0.50427127

e   0.4209696      Incl.    9.07792     +0.44021010     -0.08944527

P   6.92 (+/- 0.02 day)

From 62 observations 2006 Nov. 15-2007 Feb. 12, mean residual 0".41.



NAKANO

         **** Don't distribute anyone except personal use only ****

                (C) Copyright 2007 OAA/ComputingSection

write mail from CFAD0::NAKANO on 2007-03-05 06:22:02(JST).

 





    P/2006 XG16 (Spacewatch)

Epoch 2007 Mar. 1.0 TT = JDT 2454160.5  

T 2007 Feb. 9.94528 TT                                  Nakano

q   2.1022164            (2000.0)            P               Q

n   0.14247543     Peri.   41.30518     -0.48825558     -0.85890048

a   3.6305805      Node    78.45402     +0.75353935     -0.50427127

e   0.4209696      Incl.    9.07792     +0.44021010     -0.08944527

P   6.92 (+/- 0.02 day)

From 62 observations 2006 Nov. 15-2007 Feb. 12, mean residual 0".41.

NAKANO

         **** Don't distribute anyone except personal use only ****

                (C) Copyright 2007 OAA/ComputingSection

write mail from CFAD0::NAKANO on 2007-03-05 06:21:26(JST).

 

◎P/2006 XG16の軌道と予報位置    [From YC 2541 & JSGA Web. News]



JSGA Web News No. 102                                             2007 Feb. 12



特異小惑星 2006 XG16が彗星と判明

  アリゾナ大学のハーゲンローザ(C. W. Hergenrother, LPL)は,スペースウォ

ッチ・サーベイで2006年12月10日にふたご座を撮影した捜索フレームの次の位置

に発見された20等級の小惑星2006 XG16を2007年1月27日と28日に1.54-m反射で観

測した.なお,発見位置に記された光度は12月12日のもの.そのとき,この小惑星

には,9"のコマと南東に20"の尾が認められ,この小惑星は,彗星であることが判

明した(IAUC 8802).なお,小惑星には,レモン山で2006年11月15日に撮影され

た捜索フレーム上に発見前の観測が見つかっている.



   2006 UT             α     (2000)     δ             Mag.

   Dec. 10.41280   07h 31m 13s.50   +26゚ 37' 28".7      19.9



  この彗星の追跡観測は,上尾の門田健一氏(K. Kadota, Ageo)からも報告され

た.氏のCCD全光度は17.8等であった.次の軌道は,2006年11月15日から2007年2

月8日までに行なわれた52個の観測から決定したもの.平均残差は0".36.彗星は,

周期が7年ほどの新周期彗星であった.



   T = 2007 Feb. 9.94476 TT     Epoch = 2007 Mar. 1.0 TT

   ω =  41.30502                   e =   0.4209688

   Ω =  78.45399    (2000.0)       a =   3.6305713 AU

   i =   9.07791                   n゚=   0.14247597

   q =   2.1022141 AU              P =   6.92 年





予報位置:



2007/        α  (2000) δ      △      r    Daily motion  Elong. Phase    m1 

  0h TT     h  m       。  ,        AU      AU      ,     。     。      。      等

Feb.  9   06 58.38  +32 55.2    1.238   2.102     1.3/ 45   141.5   17.0   18.2

     19   06 59.10  +33 04.4    1.311   2.103     5.6/ 95   131.8   20.5   18.3

Mar.  1   07 03.57  +32 59.1    1.397   2.107    10.1/ 99   123.0   23.2   18.5

     11   07 11.47  +32 41.5    1.495   2.114    14.0/101   114.9   25.2   18.6

     21   07 22.33  +32 12.7    1.601   2.124    17.4/102   107.4   26.6   18.8

     31   07 35.63  +31 33.5    1.714   2.136    20.1/103   100.6   27.4   19.0

Apr. 10   07 50.79  +30 44.0    1.831   2.150    22.3/104    94.2   27.7   19.1

     20   08 07.36  +29 44.4    1.952   2.168    24.0/106    88.2   27.6   19.3

     30   08 24.91  +28 35.0    2.075   2.187    25.4/107    82.6   27.2   19.5

May  10   08 43.10  +27 16.2    2.200   2.209    26.4/108    77.2   26.5   19.7

     20   09 01.66  +25 48.8    2.326   2.233    27.2/110    72.1   25.5   19.8

     30   09 20.38  +24 13.4    2.451   2.259    27.7/111    67.1   24.4   20.0

June  9   09 39.10  +22 31.1    2.576   2.287    28.1/112    62.2   23.1   20.1

                    m1 = 14.5 + 5 log △ + 10.0 log r





軌道と残差:



    P/2006 XG16 (Spacewatch)

Epoch 2007 Mar. 1.0 TT = JDT 2454160.5  

T 2007 Feb. 9.94476 TT                                  Nakano

q   2.1022141            (2000.0)            P               Q

n   0.14247597     Peri.   41.30502     -0.48825285     -0.85890207

a   3.6305713      Node    78.45399     +0.75354100     -0.50426877

e   0.4209688      Incl.    9.07791     +0.44021031     -0.08944405

P   6.92 (+/- 0.02 day)

From 52 observations 2006 Nov. 15-2007 Feb. 8, mean residual 0".36.



日本スペースガード協会            (c) Copyright JSGA 2006           中野 主一

         **** Don't distribute anyone except personal use only ****

                (C) Copyright 2007 OAA/ComputingSection

write mail from CFAD0::NAKANO on 2007-02-12 05:52:17(JST).

 

    P/2006 XG16 (Spacewatch)

Epoch 2007 Mar. 1.0 TT = JDT 2454160.5  

T 2007 Feb. 9.94476 TT                                  Nakano

q   2.1022141            (2000.0)            P               Q

n   0.14247597     Peri.   41.30502     -0.48825285     -0.85890207

a   3.6305713      Node    78.45399     +0.75354100     -0.50426877

e   0.4209688      Incl.    9.07791     +0.44021031     -0.08944405

P   6.92 (+/- 0.02 day)

From 52 observations 2006 Nov. 15-2007 Feb. 8, mean residual 0".36.





NAKANO

         **** Don't distribute anyone except personal use only ****

                (C) Copyright 2007 OAA/ComputingSection

write mail from CFAD0::NAKANO on 2007-02-11 07:48:38(JST).

 







戻ります。